Change the Weather History Date:

Friday, September 6, 2013

  Actual Average Record
Temperature  
Mean Temperature 55 °F -  
Max Temperature 68 °F 76 °F 93 °F (2014)
Min Temperature 44 °F 53 °F 39 °F (2001)
Degree Days  
Heating Degree Days 10    
Growing Degree Days 5 (Base 50)    
Moisture  
Dew Point 43 °F    
Average Humidity 69    
Maximum Humidity 97    
Minimum Humidity 36    
Precipitation  
Precipitation 0.00 in - - ()
Sea Level Pressure  
Sea Level Pressure 30.20 in    
Wind  
Wind Speed 2 mph (ESE)    
Max Wind Speed 8 mph    
Max Gust Speed -    
Visibility 10 miles    
Events      
Averages and records for this station are not official NWS values.
T = Trace of Precipitation, MM = Missing Value Source: NWS Daily Summary

Daily Weather History Graph

Daily Weather History Graph

Search for Another Location

Airport or City:

Trip Planner

Search our weather history database for the weather conditions in past years. The results will help you decide how hot, cold, wet, or windy it might be!

Date:

Astronomy

Sep. 06, 2013 Rise Set
Actual Time 6:21 AM EDT 7:15 PM EDT
Civil Twilight 5:53 AM EDT 7:44 PM EDT
Nautical Twilight 5:19 AM EDT 8:17 PM EDT
Astronomical Twilight 4:43 AM EDT 8:53 PM EDT
Moon 7:33 AM EDT (9/6) 7:35 PM EDT (9/6)
Length of Visible Light 13h 50m
Length of Day
12h 54m
New Moon, 1% of the Moon is Illuminated
Sep 6
New Moon
Sep 12
First Quarter
Sep 19
Full
Sep 26
Last Quarter
Oct 4
New

Hourly Weather History & Observations

Time (EDT) Temp. Windchill Dew Point Humidity Pressure Visibility Wind Dir Wind Speed Gust Speed Precip Events Conditions
12:53 AM 48.0 °F - 46.0 °F 93% 30.18 in 10.0 mi Calm Calm - N/A   Clear
1:53 AM 48.0 °F - 45.0 °F 89% 30.19 in 10.0 mi Calm Calm - N/A   Clear
2:53 AM 45.0 °F - 44.1 °F 97% 30.20 in 9.0 mi Calm Calm - N/A   Clear
3:53 AM 46.0 °F 44.8 °F 43.0 °F 89% 30.21 in 10.0 mi North 3.5 mph - N/A   Clear
4:53 AM 44.1 °F 42.5 °F 41.0 °F 89% 30.22 in 10.0 mi NNE 3.5 mph - N/A   Clear
5:53 AM 44.1 °F 42.5 °F 41.0 °F 89% 30.24 in 10.0 mi North 3.5 mph - N/A   Clear
6:53 AM 44.1 °F - 41.0 °F 89% 30.25 in 10.0 mi Calm Calm - N/A   Clear
7:53 AM 48.9 °F - 44.1 °F 83% 30.27 in 10.0 mi NNE 4.6 mph - N/A   Clear
8:53 AM 54.0 °F - 45.0 °F 72% 30.26 in 10.0 mi Calm Calm - N/A   Clear
9:53 AM 59.0 °F - 43.0 °F 55% 30.27 in 10.0 mi Calm Calm - N/A   Clear
10:53 AM 63.0 °F - 37.0 °F 38% 30.26 in 10.0 mi NNE 8.1 mph - N/A   Clear
11:53 AM 64.9 °F - 37.9 °F 37% 30.25 in 10.0 mi North 5.8 mph - N/A   Clear
12:53 PM 64.9 °F - 39.0 °F 39% 30.23 in 10.0 mi Variable 3.5 mph - N/A   Clear
1:53 PM 66.0 °F - 37.9 °F 36% 30.22 in 10.0 mi Calm Calm - N/A   Clear
2:53 PM 66.0 °F - 39.9 °F 38% 30.19 in 10.0 mi South 6.9 mph - N/A   Clear
3:53 PM 66.0 °F - 42.1 °F 42% 30.18 in 10.0 mi SSE 6.9 mph - N/A   Clear
4:53 PM 66.9 °F - 43.0 °F 42% 30.15 in 10.0 mi South 6.9 mph - N/A   Clear
5:53 PM 66.0 °F - 43.0 °F 43% 30.15 in 10.0 mi SSW 8.1 mph - N/A   Clear
6:53 PM 63.0 °F - 45.0 °F 52% 30.14 in 10.0 mi SW 4.6 mph - N/A   Clear
7:53 PM 55.0 °F - 48.0 °F 77% 30.15 in 10.0 mi Calm Calm - N/A   Clear
8:53 PM 51.1 °F - 46.9 °F 86% 30.15 in 10.0 mi Calm Calm - N/A   Clear
9:53 PM 48.0 °F - 46.0 °F 93% 30.15 in 10.0 mi SSE 3.5 mph - N/A   Clear
10:53 PM 48.9 °F - 46.0 °F 90% 30.13 in 10.0 mi SSE 3.5 mph - N/A   Clear
11:53 PM 48.0 °F - 45.0 °F 89% 30.12 in 10.0 mi Calm Calm - N/A   Clear